• In Netherlands
  • List of Countries
  • For 7 days
  • Water Temperature
  • Satellite Maps
  • Weather Map
  • Weather Widgets
  • user-avatar
    Login

    Hourly Weather Trinidad

    Today, 21 July, Friday

    Time Temperature Precipitation Wind Pressure Humidity
    00:00 +18°C° 0 mm 0 mps 748 mmHg 50%
    01:00 +17°C° 0 mm 0 mps 748 mmHg 52%
    02:00 +17°C° 0 mm 0 mps 748 mmHg 53%
    03:00 +18°C° 0 mm 1 mps 748 mmHg 55%
    04:00 +18°C° 0 mm 1 mps 747 mmHg 56%
    05:00 +16°C° 0 mm 1 mps 747 mmHg 58%
    06:00 +18°C° 0 mm 1 mps 748 mmHg 56%
    07:00 +19°C° 0 mm 1 mps 748 mmHg 54%
    08:00 +17°C° 0 mm 0 mps 749 mmHg 52%
    09:00 +22°C° 0 mm 0 mps 749 mmHg 44%
    10:00 +26°C° 0 mm 0 mps 750 mmHg 35%
    11:00 +30°C° 0 mm 0 mps 750 mmHg 27%
    12:00 +31°C° 0 mm 0 mps 749 mmHg 25%
    13:00 +34°C° 0 mm 1 mps 748 mmHg 24%
    14:00 +35°C° 0 mm 2 mps 748 mmHg 22%
    15:00 +35°C° 0 mm 2 mps 747 mmHg 23%
    16:00 +33°C° 0 mm 1 mps 747 mmHg 25%
    17:00 +33°C° 0 mm 1 mps 746 mmHg 26%
    18:00 +30°C° 0 mm 1 mps 747 mmHg 31%
    19:00 +27°C° 0 mm 1 mps 747 mmHg 37%
    20:00 +25°C° 0 mm 1 mps 747 mmHg 42%
    21:00 +22°C° 0 mm 0 mps 748 mmHg 44%
    22:00 +21°C° 0 mm 0 mps 748 mmHg 46%
    23:00 +21°C° 0 mm 0 mps 748 mmHg 48%

    Tomorrow, 22 July, Saturday

    Time Temperature Precipitation Wind Pressure Humidity
    00:00 +20°C° 0 mm 0 mps 748 mmHg 50%
    01:00 +20°C° 0 mm 0 mps 748 mmHg 51%
    02:00 +19°C° 0 mm 0 mps 747 mmHg 53%
    03:00 +20°C° 0 mm 1 mps 747 mmHg 56%
    04:00 +20°C° 0 mm 1 mps 747 mmHg 58%
    05:00 +19°C° 0 mm 1 mps 747 mmHg 61%
    06:00 +20°C° 0 mm 1 mps 747 mmHg 60%
    07:00 +20°C° 0 mm 1 mps 748 mmHg 58%
    08:00 +21°C° 0 mm 1 mps 748 mmHg 57%
    09:00 +26°C° 0 mm 1 mps 749 mmHg 47%
    10:00 +28°C° 0 mm 0 mps 749 mmHg 37%
    11:00 +32°C° 0 mm 0 mps 749 mmHg 28%
    12:00 +35°C° 0 mm 1 mps 748 mmHg 26%
    13:00 +36°C° 0 mm 1 mps 747 mmHg 24%
    14:00 +37°C° 0 mm 2 mps 746 mmHg 22%
    15:00 +37°C° 0 mm 2 mps 746 mmHg 23%
    16:00 +36°C° 0 mm 2 mps 745 mmHg 24%
    17:00 +35°C° 0 mm 2 mps 744 mmHg 25%
    18:00 +32°C° 0 mm 2 mps 744 mmHg 31%
    19:00 +29°C° 0 mm 2 mps 745 mmHg 36%
    20:00 +27°C° 0 mm 1 mps 745 mmHg 42%
    21:00 +26°C° 0 mm 1 mps 745 mmHg 44%
    22:00 +25°C° 0 mm 1 mps 745 mmHg 46%
    23:00 +25°C° 0 mm 1 mps 746 mmHg 48%

    Day after tomorrow, 23 July, Sunday

    Time Temperature Precipitation Wind Pressure Humidity
    00:00 +24°C° 0 mm 1 mps 745 mmHg 50%
    01:00 +24°C° 0 mm 1 mps 745 mmHg 51%
    02:00 +23°C° 0 mm 1 mps 745 mmHg 53%
    03:00 +23°C° 0 mm 1 mps 745 mmHg 54%
    04:00 +22°C° 0 mm 1 mps 745 mmHg 55%
    05:00 +22°C° 0 mm 1 mps 745 mmHg 57%
    06:00 +23°C° 0 mm 1 mps 745 mmHg 55%
    07:00 +23°C° 0 mm 1 mps 746 mmHg 53%
    08:00 +24°C° 0 mm 1 mps 746 mmHg 52%
    09:00 +28°C° 0 mm 2 mps 747 mmHg 44%
    10:00 +31°C° 0 mm 2 mps 747 mmHg 36%
    11:00 +35°C° 0 mm 3 mps 747 mmHg 29%
    12:00 +37°C° 0 mm 3 mps 746 mmHg 27%
    13:00 +38°C° 0 mm 4 mps 745 mmHg 25%
    14:00 +40°C° 0 mm 4 mps 744 mmHg 24%
    15:00 +38°C° 0 mm 4 mps 744 mmHg 25%
    16:00 +38°C° 0 mm 3 mps 743 mmHg 26%
    17:00 +37°C° 0 mm 3 mps 743 mmHg 27%
    18:00 +34°C° 0 mm 2 mps 743 mmHg 33%
    19:00 +31°C° 0 mm 2 mps 743 mmHg 38%
    20:00 +28°C° 0 mm 1 mps 744 mmHg 44%
    21:00 +28°C° 0 mm 1 mps 744 mmHg 46%
    22:00 +27°C° 0 mm 1 mps 744 mmHg 47%
    23:00 +26°C° 0 mm 1 mps 745 mmHg 49%

    24 July, Monday

    Time Temperature Precipitation Wind Pressure Humidity
    00:00 +26°C° 0 mm 1 mps 744 mmHg 51%
    01:00 +25°C° 0 mm 1 mps 744 mmHg 53%
    02:00 +25°C° 0 mm 1 mps 744 mmHg 54%
    03:00 +24°C° 0 mm 1 mps 744 mmHg 56%
    04:00 +24°C° 0 mm 1 mps 744 mmHg 58%
    05:00 +23°C° 0 mm 1 mps 744 mmHg 59%
    06:00 +24°C° 0 mm 1 mps 745 mmHg 57%
    07:00 +25°C° 0 mm 1 mps 746 mmHg 56%
    08:00 +26°C° 0 mm 1 mps 746 mmHg 54%
    09:00 +29°C° 0 mm 2 mps 747 mmHg 46%
    10:00 +32°C° 0 mm 2 mps 747 mmHg 39%
    11:00 +36°C° 0 mm 2 mps 747 mmHg 31%
    12:00 +37°C° 0 mm 3 mps 746 mmHg 29%
    13:00 +39°C° 0 mm 3 mps 746 mmHg 27%
    14:00 +41°C° 0 mm 4 mps 745 mmHg 25%
    15:00 +39°C° 0 mm 3 mps 744 mmHg 26%
    16:00 +39°C° 0 mm 3 mps 744 mmHg 27%
    17:00 +38°C° 0 mm 3 mps 743 mmHg 28%
    18:00 +35°C° 0 mm 2 mps 744 mmHg 33%
    19:00 +32°C° 0 mm 1 mps 744 mmHg 39%
    20:00 +29°C° 0 mm 1 mps 744 mmHg 44%
    21:00 +29°C° 0 mm 1 mps 745 mmHg 46%
    22:00 +28°C° 0 mm 1 mps 745 mmHg 47%
    23:00 +28°C° 0 mm 1 mps 745 mmHg 49%

    25 July, Tuesday

    Time Temperature Precipitation Wind Pressure Humidity
    00:00 +27°C° 0 mm 1 mps 745 mmHg 51%
    01:00 +27°C° 0 mm 1 mps 745 mmHg 52%
    02:00 +26°C° 0 mm 1 mps 745 mmHg 54%
    03:00 +26°C° 0 mm 1 mps 745 mmHg 55%
    04:00 +25°C° 0 mm 1 mps 745 mmHg 56%
    05:00 +25°C° 0 mm 1 mps 745 mmHg 58%
    06:00 +24°C° 0 mm 0 mps 746 mmHg 56%
    07:00 +24°C° 0 mm 0 mps 747 mmHg 54%
    08:00 +25°C° 0 mm 0 mps 747 mmHg 52%
    09:00 +29°C° 0 mm 0 mps 747 mmHg 45%
    10:00 +34°C° 0 mm 1 mps 748 mmHg 37%
    11:00 +37°C° 0 mm 1 mps 748 mmHg 29%
    12:00 +39°C° 0 mm 2 mps 747 mmHg 28%
    13:00 +40°C° 0 mm 2 mps 746 mmHg 26%
    14:00 +40°C° 0 mm 3 mps 745 mmHg 24%
    15:00 +40°C° 0 mm 2 mps 745 mmHg 25%
    16:00 +39°C° 0 mm 2 mps 744 mmHg 26%
    17:00 +39°C° 0 mm 2 mps 744 mmHg 27%
    18:00 +36°C° 0 mm 2 mps 744 mmHg 32%
    19:00 +33°C° 0 mm 1 mps 745 mmHg 37%
    20:00 +30°C° 0 mm 1 mps 745 mmHg 42%
    21:00 +30°C° 0 mm 1 mps 745 mmHg 44%
    22:00 +29°C° 0 mm 1 mps 745 mmHg 45%
    23:00 +28°C° 0 mm 1 mps 746 mmHg 47%

    26 July, Wednesday

    Time Temperature Precipitation Wind Pressure Humidity
    00:00 +28°C° 0 mm 1 mps 745 mmHg 49%
    01:00 +27°C° 0 mm 1 mps 745 mmHg 50%
    02:00 +27°C° 0 mm 1 mps 745 mmHg 51%
    03:00 +27°C° 0 mm 1 mps 745 mmHg 52%
    04:00 +26°C° 0 mm 1 mps 745 mmHg 54%
    05:00 +24°C° 0 mm 0 mps 745 mmHg 55%
    06:00 +24°C° 0 mm 0 mps 746 mmHg 54%
    07:00 +25°C° 0 mm 0 mps 746 mmHg 52%
    08:00 +26°C° 0 mm 0 mps 747 mmHg 51%
    09:00 +29°C° 0 mm 0 mps 747 mmHg 44%
    10:00 +32°C° 0 mm 0 mps 747 mmHg 37%
    11:00 +39°C° 0 mm 1 mps 748 mmHg 29%
    12:00 +39°C° 0 mm 1 mps 747 mmHg 27%
    13:00 +40°C° 0 mm 1 mps 746 mmHg 24%
    14:00 +41°C° 0 mm 1 mps 745 mmHg 21%
    15:00 +40°C° 0 mm 1 mps 745 mmHg 22%
    16:00 +39°C° 0 mm 1 mps 744 mmHg 23%
    17:00 +39°C° 0 mm 1 mps 744 mmHg 24%
    18:00 +35°C° 0 mm 1 mps 744 mmHg 28%
    19:00 +33°C° 0 mm 1 mps 744 mmHg 33%
    20:00 +30°C° 0 mm 1 mps 744 mmHg 38%
    21:00 +29°C° 0 mm 1 mps 745 mmHg 40%
    22:00 +29°C° 0 mm 1 mps 745 mmHg 42%
    23:00 +26°C° 0 mm 0 mps 745 mmHg 45%
    Show more